カタログに戻る

STARLINK-36796

運用中通信SSO
NORAD 67722·PAYLOAD·🇺🇸 United States

打ち上げ Feb 11, 2026 から Vandenberg Space Force Base

Loading…

次のパス (今後24時間)

TLE

最新Source: CelesTrak SupGP

元期: Sep 14, 2026, 20:48 UTC

1 67722C 26026B   26257.86715278 -.00020181  00000+0 -62658-3 0  2576
2 67722  97.2842 309.7123 0001115  99.9201 235.7987 15.33443905    10

AllMySatでSTARLINK-36796をリアルタイム追跡

Download on the App Store